Location: ????????
(55.8351°N, 38.7040°E)
Time: 06:40:17
(UTC+00:00)

ADEOS II - Pass Details

Date: 14 April 2024
Orbit: 796 x 799 km, 98.7° (Epoch: 22 May)

Event Time Altitude Azimuth Distance (km) Brightness Sun altitude
Rises 00:41:53 0° 14° (NNE) 3,321 6.2 -13.0°
Reaches altitude 10° 00:44:16 10° 10° (N) 2,386 5.3 -12.8°
Maximum altitude 00:49:22 53° 295° (WNW) 978 2.4 -12.2°
Enters shadow 00:53:28 16° 223° (SW) 2,000 3.5 -11.8°
